Wichita, KS

11:09 PM CDT on October 23, 2017 (GMT -0500)
Wichita Eisenhower National Airport

Weather History for KICT - December, 2014

Change the Weather History Date:

Saturday, December 20, 2014

  Actual Average Record
Temperature  
Mean Temperature 41 °F 33 °F  
Max Temperature 49 °F 42 °F 70 °F (1894)
Min Temperature 32 °F 23 °F -7 °F (1983)
Degree Days  
Heating Degree Days 24 32  
Month to date heating degree days 482 604  
Since 1 July heating degree days 1362 1480  
Cooling Degree Days 0 0  
Month to date cooling degree days 0 0  
Year to date cooling degree days 1849 1686  
Moisture  
Dew Point 35 °F    
Average Humidity 77    
Maximum Humidity 92    
Minimum Humidity 61    
Precipitation  
Precipitation 0.00 in 0.04 in 1.02 in (1920)
Month to date precipitation 1.12 0.84  
Year to date precipitation 25.43 32.28  
Snow  
Snow 0.00 in 0.10 in 4.80 in (1983)
Month to date snowfall 2.7 2.7  
Since 1 July snowfall 4.5 4.1  
Snow Depth 0.00 in    
Sea Level Pressure  
Sea Level Pressure 30.14 in    
Wind  
Wind Speed 12 mph (South)    
Max Wind Speed 21 mph    
Max Gust Speed 24 mph    
Visibility 8 miles    
Events      
T = Trace of Precipitation, MM = Missing Value Source: NWS Daily Summary

Daily Weather History Graph

Daily Weather History Graph

Search for Another Location

Airport or City:

Trip Planner

Search our weather history database for the weather conditions in past years. The results will help you decide how hot, cold, wet, or windy it might be!

Date:

Astronomy

Dec. 20, 2014 Rise Set
Actual Time 7:40 AM CST 5:14 PM CST
Civil Twilight 7:11 AM CST 5:43 PM CST
Nautical Twilight 6:38 AM CST 6:16 PM CST
Astronomical Twilight 6:06 AM CST 6:48 PM CST
Moon 5:59 AM CST (12/20) 4:24 PM CST (12/20)
Length of Visible Light 10h 32m
Length of Day
9h 33m
Waning Crescent, 2% of the Moon is Illuminated
Dec 20
Waning Crescent
Dec 21
New
Dec 28
First Quarter
Jan 4
Full
Jan 13
Last Quarter

Hourly Weather History & Observations

Time (CST) Temp. Windchill Dew Point Humidity Pressure Visibility Wind Dir Wind Speed Gust Speed Precip Events Conditions
12:53 AM 37.9 °F 31.5 °F 34.0 °F 86% 30.20 in 8.0 mi South 9.2 mph - N/A   Overcast
1:53 AM 36.0 °F 29.6 °F 33.1 °F 89% 30.19 in 7.0 mi South 8.1 mph - N/A   Mostly Cloudy
2:53 AM 35.1 °F 28.6 °F 30.9 °F 85% 30.19 in 6.0 mi South 8.1 mph - N/A   Clear
3:53 AM 34.0 °F 26.0 °F 30.9 °F 89% 30.18 in 6.0 mi South 10.4 mph - N/A   Scattered Clouds
4:53 AM 34.0 °F 26.0 °F 30.9 °F 89% 30.17 in 4.0 mi South 10.4 mph - N/A   Clear
5:53 AM 33.1 °F 25.5 °F 30.9 °F 92% 30.18 in 4.0 mi South 9.2 mph - N/A   Clear
6:53 AM 33.1 °F 24.9 °F 30.0 °F 89% 30.20 in 3.0 mi SSW 10.4 mph - N/A   Scattered Clouds
7:03 AM 34.0 °F 26.6 °F 30.9 °F 89% 30.17 in 4.0 mi South 9.2 mph - N/A   Mostly Cloudy
7:53 AM 35.1 °F 27.9 °F 33.1 °F 92% 30.20 in 3.0 mi South 9.2 mph - N/A   Mostly Cloudy
8:53 AM 37.9 °F 30.5 °F 35.1 °F 89% 30.18 in 4.0 mi South 11.5 mph - N/A   Mostly Cloudy
9:53 AM 41.0 °F 34.3 °F 36.0 °F 82% 30.18 in 7.0 mi South 11.5 mph - N/A   Mostly Cloudy
10:53 AM 44.1 °F 37.7 °F 37.0 °F 76% 30.19 in 10.0 mi SSW 12.7 mph - N/A   Partly Cloudy
11:53 AM 46.9 °F - 37.9 °F 71% 30.17 in 10.0 mi SSW 12.7 mph - N/A   Scattered Clouds
12:08 PM 48.0 °F - 37.9 °F 68% 30.14 in 10.0 mi SSW 15.0 mph - N/A   Mostly Cloudy
12:53 PM 48.0 °F - 36.0 °F 63% 30.14 in 10.0 mi SSW 13.8 mph - N/A   Mostly Cloudy
1:53 PM 46.9 °F - 36.0 °F 66% 30.12 in 10.0 mi SSW 13.8 mph 23.0 mph N/A   Mostly Cloudy
2:53 PM 48.9 °F - 37.0 °F 64% 30.11 in 10.0 mi SSW 15.0 mph - N/A   Overcast
3:53 PM 46.9 °F - 36.0 °F 66% 30.12 in 10.0 mi South 13.8 mph - N/A   Overcast
4:53 PM 45.0 °F 37.4 °F 36.0 °F 71% 30.11 in 9.0 mi South 18.4 mph 24.2 mph N/A   Overcast
5:53 PM 44.1 °F 37.7 °F 36.0 °F 73% 30.12 in 10.0 mi SSW 12.7 mph - N/A   Overcast
6:53 PM 44.1 °F 37.4 °F 36.0 °F 73% 30.13 in 9.0 mi SSW 13.8 mph - N/A   Overcast
7:53 PM 44.1 °F 38.6 °F 37.0 °F 76% 30.13 in 8.0 mi South 10.4 mph - N/A   Overcast
8:53 PM 43.0 °F 37.2 °F 37.0 °F 80% 30.13 in 8.0 mi South 10.4 mph - N/A   Overcast
9:53 PM 43.0 °F 36.0 °F 37.0 °F 80% 30.11 in 9.0 mi South 13.8 mph - N/A   Overcast
10:12 PM 43.0 °F 36.0 °F 37.0 °F 80% 30.08 in 9.0 mi South 13.8 mph - N/A   Overcast
10:35 PM 43.0 °F 36.0 °F 37.0 °F 80% 30.08 in 10.0 mi South 13.8 mph - N/A   Overcast
10:53 PM 43.0 °F 36.8 °F 37.0 °F 80% 30.09 in 9.0 mi South 11.5 mph - N/A   Overcast
11:53 PM 43.0 °F 35.7 °F 37.0 °F 80% 30.07 in 10.0 mi South 15.0 mph - N/A   Overcast